Back to catalog

LEMUR-2 DELOITTE-3

AliveScienceSSO
NORAD 68471·PAYLOAD·🇺🇸 United States

Launched Mar 30, 2026 from Vandenberg Space Force Base

Loading…

Next Passes (next 24 hours)

TLE

FreshSource: Space-Track

Epoch: Sep 14, 2026, 08:20 UTC

1 68471U 26067BH  26257.34751464  .00003265  00000-0  32596-3 0  9997
2 68471  97.7666 214.1698 0005356 104.7226 255.4587 14.92190148 25025

Track LEMUR-2 DELOITTE-3 in real time with AllMySat

Download on the App Store